Regional Weather Roundup
Issued by NWS Sioux Falls, SD

Home | Current Version | Previous Version | Text Only | Print | Product List | Glossary On
Versions: 1 2 3 4 5 6 7 8 9 10 11 12 13 14 15 16 17 18 19 20 21 22 23 24 25 26 27 28 29 30 31 32 33 34 35 36 37 38 39 40 41 42 43 44 45 46 47 48 49 50
991
ASUS43 KFSD 212302
RWRFSD

WEATHER ROUNDUP FOR SE SOUTH DAKOTA/SW MINNESOTA/NW IOWA
NATIONAL WEATHER SERVICE SIOUX FALLS SD
500 PM CST TUE FEB 21 2017

NOTE: "FAIR" INDICATES FEW OR NO CLOUDS BELOW 12,000 FEET WITH NO
SIGNIFICANT WEATHER AND OR OBSTRUCTIONS TO VISIBILITY.


SDZ038>040-050-052>070-220000-
SOUTHEAST SOUTH DAKOTA

CITY           SKY/WX    TMP DP  RH WIND       PRES   REMARKS
BROOKINGS      SUNNY     62  41  46 SW8       29.70S
CHAMBERLAIN    SUNNY     70  40  33 E6        29.66F
HURON          SUNNY     68  35  29 SW3       29.66F
MADISON        FAIR      63  37  39 W8        29.71S
MITCHELL       SUNNY     69  36  29 W6        29.69F
SIOUX FALLS    MOSUNNY   67  39  35 W5        29.71S
WINNER         FAIR      76  34  21 NW10G22   29.67F
YANKTON        SUNNY     73  37  27 W14       29.69R
$$

MNZ071-072-080-081-089-090-097-098-220000-
SOUTHWEST MINNESOTA

CITY           SKY/WX    TMP DP  RH WIND       PRES   REMARKS
FAIRMONT       CLOUDY    62  47  57 S12       29.74S
JACKSON        CLEAR     61  43  51 SW17G24   29.73F
LUVERNE        SUNNY     63  41  45 W5        29.72F
MARSHALL       CLEAR     61  45  55 W14       29.70S
MONTEVIDEO     CLEAR     63  48  59 NW3       29.70F
PIPESTONE      CLEAR     61  39  44 SW8       29.72S
REDWOOD FALLS  CLEAR     62  42  47 W10       29.69F
TRACY          CLEAR     61  45  56 SW13      29.71R
WINDOM         CLEAR     63  46  55 SW12      29.72S
WORTHINGTON    CLEAR     62  45  53 SW14      29.73S
$$

IAZ001>003-012>014-020>022-031-032-NEZ013-014-SDZ071-220000-
NORTHWEST IOWA

CITY           SKY/WX    TMP DP  RH WIND       PRES   REMARKS
CHEROKEE       CLEAR     66  38  35 S17       29.74F
DENISON        SUNNY     64  43  45 S15G22    29.78F
ESTHERVILLE    CLEAR     61  44  53 SW12G21   29.74S
LE MARS        SUNNY     68  39  34 S14       29.73F
ORANGE CITY    SUNNY     64  45  48 SW14      29.72F
SHELDON        CLEAR     66  43  42 SW15      29.70F
SIOUX CITY     SUNNY     72  37  28 SW18      29.74F
SPENCER        CLEAR     63  45  51 S13       29.74S
STORM LAKE     CLEAR     61  46  59 S14       29.77S
$$

ABBREVIATIONS USED IN REMARKS
   TC - TEMPERATURE IN CELSIUS
  WCI - WIND CHILL INDEX
   HX - HEAT INDEX
  VSB - VISIBILITY





USA.gov is the U.S. government's official web portal to all federal, state and local government web resources and services.